Location: Brivio
(45.7333°N, 9.4500°E)
Time: 23:53:40
(UTC+00:00)

NOSS 3-2 (A) - Pass Details

Date: 18 October 2019
Orbit: 816 x 1392 km, 63.4° (Epoch: 07 November)

Event Time Altitude Azimuth Distance (km) Brightness Sun altitude
Rises 17:57:42 0° 190° (S) 3,366 6.4 -15.7°
Reaches altitude 10° 18:00:12 10° 182° (S) 2,474 5.6 -16.1°
Maximum altitude 18:05:25 38° 115° (ESE) 1,352 3.8 -17.0°
Enters shadow 18:08:33 23° 65° (ENE) 1,903 4.5 -17.6°
